| time (UTC) | temp F | wind direction | speed knots | gust knots | rain 1hr in | rain 24hr in | rain mn in | humidity % | barometer mb |
| 20260510093050 | 60 | 124 | 0.0 | 0.0 | 0.00 | 0.00 | 0.00 | 95 | 1014.2 |
| 20260510091556 | 60 | 124 | 0.0 | 0.0 | 0.00 | 0.00 | 0.00 | 95 | 1014.2 |
| 20260510090100 | 60 | 124 | 0.0 | 0.0 | 0.00 | 0.00 | 0.00 | 95 | 1013.9 |
| 20260510084555 | 61 | 124 | 0.0 | 0.0 | 0.00 | 0.00 | 0.00 | 95 | 1013.7 |
| 20260510083047 | 61 | 124 | 0.0 | 0.0 | 0.00 | 0.00 | 0.00 | 95 | 1013.5 |
| 20260510081547 | 61 | 124 | 0.0 | 0.0 | 0.00 | 0.00 | 0.00 | 94 | 1013.6 |
| 20260510080058 | 61 | 124 | 0.0 | 0.0 | 0.00 | 0.00 | 0.00 | 94 | 1013.5 |
| 20260510074545 | 61 | 124 | 0.0 | 0.0 | 0.00 | 0.00 | 0.00 | 94 | 1013.5 |
| 20260510073044 | 61 | 124 | 0.0 | 0.0 | 0.00 | 0.00 | 0.00 | 94 | 1013.3 |
| 20260510071543 | 61 | 124 | 0.0 | 0.0 | 0.00 | 0.00 | 0.00 | 94 | 1013.5 |
| 20260510070047 | 61 | 124 | 0.0 | 0.0 | 0.00 | 0.00 | 0.00 | 94 | 1013.4 |
| 20260510064600 | 61 | 124 | 0.0 | 0.0 | 0.00 | 0.00 | 0.00 | 93 | 1013.6 |
| 20260510063046 | 61 | 124 | 0.0 | 0.0 | 0.00 | 0.00 | 0.00 | 93 | 1013.3 |
| 20260510061547 | 61 | 124 | 0.0 | 0.0 | 0.00 | 0.00 | 0.00 | 93 | 1013.3 |
| 20260510060041 | 61 | 124 | 0.0 | 0.0 | 0.00 | 0.00 | 0.00 | 93 | 1013.5 |
| 20260510054538 | 61 | 124 | 0.0 | 0.0 | 0.00 | 0.00 | 0.00 | 93 | 1013.5 |
| 20260510053037 | 61 | 124 | 0.0 | 0.0 | 0.00 | 0.00 | 0.00 | 93 | 1013.7 |
| 20260510051535 | 62 | 124 | 0.0 | 0.0 | 0.00 | 0.00 | 0.00 | 92 | 1013.8 |
| 20260510050039 | 62 | 124 | 0.0 | 0.0 | 0.00 | 0.00 | 0.00 | 92 | 1013.8 |
| 20260510044535 | 62 | 124 | 0.0 | 0.0 | 0.00 | 0.00 | 0.00 | 92 | 1013.9 |
| 20260510043031 | 62 | 124 | 0.0 | 0.0 | 0.00 | 0.00 | 0.00 | 91 | 1013.9 |
| 20260510041531 | 63 | 124 | 0.0 | 0.0 | 0.00 | 0.00 | 0.00 | 90 | 1013.9 |
| 20260510040028 | 63 | 124 | 0.0 | 0.0 | 0.00 | 0.00 | 0.00 | 90 | 1013.7 |
| 20260510034528 | 63 | 124 | 0.0 | 0.0 | 0.00 | 0.00 | 0.00 | 90 | 1013.6 |
| 20260510033027 | 64 | 124 | 0.0 | 0.0 | 0.00 | 0.00 | 0.00 | 90 | 1013.6 |
| 20260510031533 | 64 | 124 | 0.0 | 0.0 | 0.00 | 0.00 | 0.00 | 89 | 1013.6 |
| 20260510030025 | 64 | 124 | 0.0 | 0.0 | 0.00 | 0.00 | 0.00 | 89 | 1013.6 |
| 20260510024531 | 64 | 124 | 0.0 | 0.0 | 0.00 | 0.00 | 0.00 | 89 | 1013.6 |
| 20260510023025 | 65 | 124 | 0.0 | 0.0 | 0.00 | 0.00 | 0.00 | 89 | 1013.6 |
| 20260510021524 | 65 | 124 | 0.0 | 0.0 | 0.00 | 0.00 | 0.00 | 88 | 1013.6 |
| 20260510020024 | 66 | 124 | 0.0 | 0.0 | 0.00 | 0.00 | 0.00 | 88 | 1013.4 |
| 20260510014528 | 66 | 124 | 0.0 | 0.0 | 0.00 | 0.00 | 0.00 | 87 | 1013.3 |
| 20260510013024 | 67 | 124 | 0.0 | 0.0 | 0.00 | 0.00 | 0.00 | 87 | 1013.1 |
| 20260510011524 | 67 | 124 | 0.0 | 0.0 | 0.00 | 0.00 | 0.00 | 86 | 1012.9 |
| 20260510010023 | 68 | 124 | 0.0 | 0.0 | 0.00 | 0.00 | 0.00 | 86 | 1012.8 |
| 20260510004521 | 68 | 124 | 0.0 | 0.0 | 0.00 | 0.00 | 0.00 | 86 | 1012.7 |
| 20260510003022 | 68 | 124 | 0.0 | 0.0 | 0.00 | 0.00 | 0.00 | 86 | 1012.5 |
| 20260510001521 | 69 | 124 | 0.0 | 0.0 | 0.00 | 0.00 | 0.00 | 86 | 1012.0 |
| 20260510000120 | 69 | 124 | 0.0 | 0.0 | 0.00 | 0.00 | 0.00 | 87 | 1011.9 |
| 20260509234533 | 69 | 124 | 0.0 | 0.0 | 0.00 | 0.00 | 0.00 | 86 | 1011.7 |
| 20260509233031 | 70 | 124 | 0.0 | 0.9 | 0.00 | 0.00 | 0.00 | 85 | 1011.5 |
| 20260509231518 | 70 | 215 | 0.0 | 0.9 | 0.00 | 0.00 | 0.00 | 83 | 1011.3 |
| 20260509230017 | 71 | 215 | 0.0 | 1.7 | 0.00 | 0.00 | 0.00 | 81 | 1011.4 |
| 20260509224518 | 72 | 215 | 0.0 | 3.5 | 0.00 | 0.00 | 0.00 | 79 | 1011.2 |
| 20260509223017 | 72 | 190 | 0.0 | 4.3 | 0.00 | 0.00 | 0.00 | 78 | 1011.0 |
| 20260509221516 | 72 | 239 | 0.9 | 3.5 | 0.00 | 0.00 | 0.00 | 77 | 1011.3 |
| 20260509220019 | 72 | 272 | 0.9 | 6.1 | 0.00 | 0.00 | 0.00 | 77 | 1011.4 |
| 20260509214513 | 72 | 236 | 1.7 | 5.2 | 0.00 | 0.00 | 0.00 | 77 | 1011.3 |
| 20260509213014 | 72 | 146 | 0.9 | 6.1 | 0.00 | 0.00 | 0.00 | 78 | 1011.3 |
| 20260509211513 | 73 | 267 | 1.7 | 5.2 | 0.00 | 0.00 | 0.00 | 78 | 1011.4 |
| 20260509210011 | 73 | 206 | 1.7 | 4.3 | 0.00 | 0.00 | 0.00 | 77 | 1011.3 |
| 20260509204510 | 72 | 250 | 0.9 | 5.2 | 0.00 | 0.00 | 0.00 | 77 | 1011.4 |
| 20260509203009 | 72 | 190 | 0.9 | 7.0 | 0.00 | 0.00 | 0.00 | 78 | 1011.7 |
| 20260509201509 | 72 | 198 | 0.9 | 7.8 | 0.00 | 0.00 | 0.00 | 77 | 1011.7 |
| 20260509200006 | 72 | 165 | 2.6 | 7.8 | 0.00 | 0.00 | 0.00 | 77 | 1011.8 |
| 20260509194509 | 72 | 204 | 2.6 | 7.8 | 0.00 | 0.00 | 0.00 | 77 | 1011.8 |
| 20260509193004 | 73 | 282 | 0.9 | 6.1 | 0.00 | 0.00 | 0.00 | 77 | 1012.0 |
| 20260509191503 | 73 | 263 | 1.7 | 7.0 | 0.00 | 0.00 | 0.00 | 78 | 1012.2 |
| 20260509190007 | 72 | 162 | 0.9 | 6.1 | 0.00 | 0.00 | 0.00 | 77 | 1012.2 |
| 20260509184505 | 72 | 195 | 0.0 | 6.1 | 0.00 | 0.00 | 0.00 | 79 | 1012.6 |
| 20260509183001 | 72 | 271 | 2.6 | 5.2 | 0.00 | 0.00 | 0.00 | 77 | 1012.4 |
| 20260509181607 | 72 | 241 | 0.9 | 4.3 | 0.00 | 0.00 | 0.00 | 78 | 1012.3 |
| 20260509180104 | 72 | 243 | 0.9 | 4.3 | 0.00 | 0.00 | 0.00 | 77 | 1012.6 |
| 20260509174557 | 72 | 256 | 1.7 | 9.6 | 0.00 | 0.00 | 0.00 | 78 | 1012.8 |
| 20260509173101 | 71 | 274 | 1.7 | 5.2 | 0.00 | 0.00 | 0.00 | 79 | 1012.6 |
| 20260509171555 | 71 | 252 | 0.9 | 3.5 | 0.00 | 0.00 | 0.00 | 79 | 1012.3 |
| 20260509164553 | 70 | 344 | 0.9 | 4.3 | 0.00 | 0.00 | 0.00 | 79 | 1012.8 |
| 20260509163102 | 71 | 184 | 0.9 | 8.7 | 0.00 | 0.00 | 0.00 | 79 | 1012.9 |
| 20260509161554 | 70 | 237 | 0.9 | 7.0 | 0.00 | 0.00 | 0.00 | 79 | 1013.0 |
| 20260509160047 | 69 | 286 | 0.0 | 3.5 | 0.00 | 0.00 | 0.00 | 81 | 1012.9 |
| 20260509154544 | 69 | 269 | 0.9 | 5.2 | 0.00 | 0.00 | 0.00 | 83 | 1013.2 |
| 20260509153045 | 68 | 267 | 1.7 | 6.1 | 0.00 | 0.00 | 0.00 | 84 | 1013.5 |
| 20260509151541 | 68 | 281 | 0.9 | 3.5 | 0.00 | 0.00 | 0.00 | 86 | 1013.2 |
| 20260509150037 | 67 | 269 | 0.9 | 6.1 | 0.00 | 0.00 | 0.00 | 88 | 1013.2 |
| 20260509144533 | 66 | 271 | 0.0 | 3.5 | 0.00 | 0.00 | 0.00 | 90 | 1013.5 |
| 20260509143035 | 65 | 272 | 0.9 | 7.0 | 0.00 | 0.00 | 0.00 | 91 | 1013.5 |
| 20260509141529 | 64 | 323 | 0.0 | 5.2 | 0.00 | 0.00 | 0.00 | 91 | 1013.6 |
| 20260509140027 | 64 | 263 | 0.0 | 3.5 | 0.00 | 0.00 | 0.00 | 91 | 1013.6 |
| 20260509134526 | 64 | 260 | 0.0 | 1.7 | 0.00 | 0.00 | 0.00 | 93 | 1013.6 |
| 20260509133025 | 63 | 260 | 0.0 | 2.6 | 0.00 | 0.00 | 0.00 | 93 | 1013.5 |
| 20260509131523 | 63 | 260 | 0.9 | 5.2 | 0.00 | 0.00 | 0.00 | 92 | 1013.6 |
| 20260509130024 | 63 | 258 | 0.0 | 1.7 | 0.00 | 0.00 | 0.00 | 92 | 1013.4 |
| 20260509124522 | 63 | 258 | 0.0 | 2.6 | 0.00 | 0.00 | 0.00 | 94 | 1013.5 |
| 20260509123016 | 61 | 248 | 0.9 | 1.7 | 0.00 | 0.00 | 0.00 | 95 | 1013.5 |
| 20260509121514 | 60 | 248 | 0.0 | 0.0 | 0.00 | 0.00 | 0.00 | 95 | 1013.4 |
| 20260509120009 | 59 | 248 | 0.0 | 0.0 | 0.00 | 0.00 | 0.00 | 95 | 1013.7 |
| 20260509114517 | 59 | 248 | 0.0 | 0.0 | 0.00 | 0.00 | 0.00 | 94 | 1014.0 |
| 20260509113004 | 58 | 248 | 0.0 | 0.0 | 0.00 | 0.00 | 0.00 | 94 | 1013.9 |
| 20260509111504 | 58 | 248 | 0.0 | 0.0 | 0.00 | 0.00 | 0.00 | 94 | 1013.9 |
| 20260509104559 | 58 | 196 | 0.0 | 0.0 | 0.00 | 0.00 | 0.00 | 94 | 1013.6 |
| 20260509103058 | 58 | 196 | 0.0 | 0.0 | 0.00 | 0.00 | 0.00 | 93 | 1013.4 |
| 20260509101558 | 58 | 196 | 0.0 | 0.0 | 0.00 | 0.00 | 0.00 | 93 | 1013.3 |
| 20260509100058 | 58 | 196 | 0.0 | 0.0 | 0.00 | 0.00 | 0.00 | 93 | 1012.9 |
| 20260509094558 | 58 | 196 | 0.0 | 0.0 | 0.00 | 0.00 | 0.00 | 93 | 1012.7 |